Brinson, GA

11:26 PM EDT on August 30, 2016 (GMT -0400)
Decatur County Industrial

Weather History for KBGE - February, 2013

Change the Weather History Date:

Tuesday, February 5, 2013

  Actual Average (KMAI) Record (KMAI)
Temperature  
Mean Temperature 56 °F 53 °F  
Max Temperature 69 °F 64 °F 81 °F (2008)
Min Temperature 44 °F 41 °F 19 °F (2009)
Degree Days  
Heating Degree Days 8    
Month to date heating degree days  
Since 1 July heating degree days  
Cooling Degree Days 0    
Month to date cooling degree days  
Year to date cooling degree days  
Growing Degree Days 6 (Base 50)    
Moisture  
Dew Point 54 °F    
Average Humidity 88    
Maximum Humidity 100    
Minimum Humidity 60    
Precipitation  
Precipitation 0.00 in 0.16 in 0.13 in (2013)
Month to date precipitation 0.83  
Year to date precipitation 5.87  
Sea Level Pressure  
Sea Level Pressure 30.04 in    
Wind  
Wind Speed 2 mph (SSE)    
Max Wind Speed 9 mph    
Max Gust Speed -    
Visibility 9 miles    
Events Rain    
T = Trace of Precipitation, MM = Missing Value Source: NWS Daily Summary

Daily Weather History Graph

Daily Weather History Graph

Search for Another Location

Airport or City:

Trip Planner

Search our weather history database for the weather conditions in past years. The results will help you decide how hot, cold, wet, or windy it might be!

Date:

Astronomy

Feb. 05, 2013 Rise Set
Actual Time 7:27 AM EST 6:18 PM EST
Civil Twilight 7:02 AM EST 6:43 PM EST
Nautical Twilight 6:33 AM EST 7:11 PM EST
Astronomical Twilight 6:05 AM EST 7:40 PM EST
Moon 3:01 AM EST (2/5) 1:42 PM EST (2/5)
Length of Visible Light 11h 40m
Length of Day
10h 50m
Waning Crescent, 27% of the Moon is Illuminated
Feb 5
Waning Crescent
Feb 10
New
Feb 17
First Quarter
Feb 25
Full
Mar 4
Last Quarter

Hourly Weather History & Observations

Time (EST) Temp. Dew Point Humidity Pressure Visibility Wind Dir Wind Speed Gust Speed Precip Events Conditions
12:15 AM 50.0 °F 46.4 °F 87% 30.04 in 10.0 mi Calm Calm - N/A   Clear
12:55 AM 50.0 °F 46.4 °F 87% 30.03 in 10.0 mi Calm Calm - N/A   Clear
1:15 AM 46.4 °F 44.6 °F 93% 30.03 in 10.0 mi Calm Calm - N/A   Clear
1:35 AM 46.4 °F 44.6 °F 93% 30.03 in 10.0 mi Calm Calm - N/A   Clear
1:55 AM 46.4 °F 44.6 °F 93% 30.03 in 10.0 mi Calm Calm - N/A   Clear
2:15 AM 46.4 °F 44.6 °F 93% 30.02 in 10.0 mi Calm Calm - N/A   Clear
2:35 AM 44.6 °F 44.6 °F 100% 30.02 in 10.0 mi Calm Calm - N/A   Clear
2:55 AM 46.4 °F 44.6 °F 93% 30.02 in 10.0 mi Calm Calm - N/A   Clear
3:15 AM 46.4 °F 44.6 °F 93% 30.01 in 10.0 mi Calm Calm - N/A   Clear
3:35 AM 48.2 °F 46.4 °F 93% 30.00 in 10.0 mi Calm Calm - N/A   Clear
3:55 AM 50.0 °F 48.2 °F 94% 30.01 in 10.0 mi Calm Calm - N/A   Clear
4:15 AM 50.0 °F 48.2 °F 94% 30.02 in 10.0 mi Calm Calm - N/A   Clear
4:35 AM 50.0 °F 48.2 °F 94% 30.02 in 10.0 mi Calm Calm - N/A Rain Light Rain
4:55 AM 51.8 °F 50.0 °F 94% 30.02 in 10.0 mi Calm Calm - N/A Rain Light Rain
5:15 AM 51.8 °F 51.8 °F 100% 30.03 in 10.0 mi Calm Calm - N/A   Light Drizzle
5:55 AM 51.8 °F 51.8 °F 100% 30.03 in 7.0 mi Calm Calm - N/A Rain Light Rain
6:15 AM 51.8 °F 51.8 °F 100% 30.02 in 7.0 mi Calm Calm - N/A Rain Light Rain
6:35 AM 51.8 °F 51.8 °F 100% 30.03 in 7.0 mi Calm Calm - N/A Rain Light Rain
6:55 AM 51.8 °F 51.8 °F 100% 30.03 in 7.0 mi Calm Calm - N/A Rain Light Rain
7:15 AM 51.8 °F 51.8 °F 100% 30.05 in 7.0 mi Calm Calm - N/A   Clear
7:35 AM 51.8 °F 51.8 °F 100% 30.05 in 7.0 mi Calm Calm - N/A Rain Light Rain
7:55 AM 51.8 °F 51.8 °F 100% 30.05 in 5.0 mi South 3.5 mph - N/A Rain Light Rain
8:15 AM 53.6 °F 53.6 °F 100% 30.06 in 10.0 mi South 4.6 mph - N/A Rain Light Rain
8:55 AM 57.2 °F 55.4 °F 94% 30.07 in 10.0 mi South 4.6 mph - N/A   Light Drizzle
9:15 AM 57.2 °F 55.4 °F 94% 30.08 in 10.0 mi South 4.6 mph - N/A   Light Drizzle
9:35 AM 57.2 °F 55.4 °F 94% 30.08 in 10.0 mi South 3.5 mph - N/A   Light Drizzle
9:55 AM 59.0 °F 57.2 °F 94% 30.08 in 10.0 mi SSE 3.5 mph - N/A   Scattered Clouds
10:15 AM 60.8 °F 55.4 °F 82% 30.08 in 10.0 mi SSE 4.6 mph - N/A   Clear
10:35 AM 60.8 °F 55.4 °F 82% 30.08 in 10.0 mi South 4.6 mph - N/A   Clear
10:55 AM 62.6 °F 57.2 °F 82% 30.08 in 10.0 mi SSW 3.5 mph - N/A   Scattered Clouds
11:15 AM 62.6 °F 55.4 °F 77% 30.08 in 10.0 mi SW 5.8 mph - N/A   Scattered Clouds
11:55 AM 64.4 °F 55.4 °F 73% 30.07 in 10.0 mi SW 4.6 mph - N/A   Scattered Clouds
12:15 PM 64.4 °F 55.4 °F 73% 30.07 in 10.0 mi SSW 4.6 mph - N/A   Clear
12:35 PM 68.0 °F 57.2 °F 68% 30.06 in 10.0 mi South 3.5 mph - N/A   Clear
12:55 PM 68.0 °F 55.4 °F 64% 30.05 in 10.0 mi SSW 5.8 mph - N/A   Clear
1:15 PM 68.0 °F 55.4 °F 64% 30.04 in 10.0 mi SW 3.5 mph - N/A   Scattered Clouds
1:35 PM 68.0 °F 55.4 °F 64% 30.04 in 10.0 mi WSW 3.5 mph - N/A   Mostly Cloudy
2:15 PM 68.0 °F 55.4 °F 64% 30.03 in 10.0 mi South 4.6 mph - N/A   Scattered Clouds
2:35 PM 69.8 °F 55.4 °F 60% 30.02 in 10.0 mi South 4.6 mph - N/A   Scattered Clouds
2:55 PM 68.0 °F 55.4 °F 64% 30.01 in 10.0 mi Calm Calm - N/A   Scattered Clouds
3:15 PM 68.0 °F 55.4 °F 64% 30.02 in 10.0 mi South 8.1 mph - N/A   Scattered Clouds
3:35 PM 68.0 °F 57.2 °F 68% 30.02 in 10.0 mi South 9.2 mph - N/A   Mostly Cloudy
3:55 PM 64.4 °F 55.4 °F 73% 30.02 in 10.0 mi South 9.2 mph - N/A   Scattered Clouds
4:15 PM 64.4 °F 55.4 °F 73% 30.02 in 10.0 mi SSW 6.9 mph - N/A   Mostly Cloudy
4:35 PM 64.4 °F 55.4 °F 73% 30.02 in 10.0 mi South 5.8 mph - N/A   Scattered Clouds
4:55 PM 62.6 °F 55.4 °F 77% 30.01 in 10.0 mi South 4.6 mph - N/A   Scattered Clouds
5:15 PM 62.6 °F 55.4 °F 77% 30.02 in 10.0 mi SSE 3.5 mph - N/A Rain Rain
5:35 PM 62.6 °F 59.0 °F 88% 30.01 in 7.0 mi Calm Calm - N/A Rain Rain
6:15 PM 60.8 °F 59.0 °F 94% 30.01 in 10.0 mi Calm Calm - N/A Rain Light Rain
6:35 PM 59.0 °F 59.0 °F 100% 30.01 in 10.0 mi East 4.6 mph - N/A   Overcast
6:55 PM 59.0 °F 59.0 °F 100% 30.01 in 10.0 mi Calm Calm - N/A   Overcast
7:15 PM 59.0 °F 59.0 °F 100% 30.02 in 10.0 mi South 3.5 mph - N/A   Overcast
7:35 PM 59.0 °F 59.0 °F 100% 30.03 in 10.0 mi SSE 5.8 mph - N/A   Overcast
7:55 PM 59.0 °F 59.0 °F 100% 30.03 in 10.0 mi Calm Calm - N/A   Overcast
8:15 PM 59.0 °F 59.0 °F 100% 30.04 in 10.0 mi Calm Calm - N/A   Overcast
8:55 PM 59.0 °F 57.2 °F 94% 30.05 in 10.0 mi East 4.6 mph - N/A   Overcast
9:15 PM 59.0 °F 57.2 °F 94% 30.05 in 10.0 mi NNE 3.5 mph - N/A   Overcast
9:35 PM 59.0 °F 55.4 °F 88% 30.06 in 10.0 mi NE 3.5 mph - N/A   Overcast
10:15 PM 59.0 °F 57.2 °F 94% 30.06 in 7.0 mi East 3.5 mph - N/A   Overcast
10:35 PM 59.0 °F 57.2 °F 94% 30.05 in 7.0 mi East 4.6 mph - N/A   Scattered Clouds
10:55 PM 59.0 °F 59.0 °F 100% 30.06 in 7.0 mi ENE 4.6 mph - N/A   Overcast
11:15 PM 59.0 °F 59.0 °F 100% 30.05 in 10.0 mi SE 5.8 mph - N/A   Overcast
11:35 PM 59.0 °F 57.2 °F 94% 30.04 in 10.0 mi SE 5.8 mph - N/A   Mostly Cloudy
11:55 PM 59.0 °F 57.2 °F 94% 30.04 in 7.0 mi SE 4.6 mph - N/A   Mostly Cloudy